GEFSMW_con_maxscp_312.txt.gz
SCP
4 4 3 2 2 2 3 4 4 4 4 3 3 3 3 3 4 3 3 2 2 2 2 2 2 2 2 3 5 6 8 9 10 10 10 9 8 7 7 8 7 6 4
3 3 3 2 2 3 4 4 4 4 4 3 3 3 3 3 4 4 3 3 2 2 2 2 2 2 2 3 4 6 7 9 11 12 11 9 7 5 5 6 7 5 4
3 3 3 3 3 4 5 5 5 4 4 4 3 3 3 3 4 4 4 3 3 2 2 2 2 2 2 2 4 5 6 9 11 12 11 8 6 4 3 3 5 5 5
3 3 4 4 4 4 5 5 5 4 4 4 4 3 3 3 4 4 5 4 4 3 3 3 3 2 2 3 4 5 7 9 10 9 8 6 4 3 2 2 3 4 4
4 5 6 7 6 5 5 5 5 5 4 4 4 4 3 3 4 4 5 5 5 4 4 4 3 3 3 4 5 7 8 8 8 6 6 5 3 3 2 2 2 2 3
5 6 8 8 8 7 7 6 5 5 5 4 5 5 5 5 5 5 5 5 5 5 5 4 4 5 6 6 6 6 6 6 6 5 6 5 4 3 2 2 2 2 2
4 5 6 7 8 10 10 8 7 7 6 5 5 7 8 8 7 6 5 5 5 5 5 5 6 8 8 6 5 4 4 5 5 5 6 6 5 4 3 2 2 2 2
3 3 3 4 6 9 10 11 10 10 9 9 9 9 10 9 7 6 5 5 5 5 6 7 8 8 8 6 5 4 4 4 5 5 5 5 5 4 3 3 3 3 2
2 2 3 3 5 6 8 10 10 10 10 11 12 11 11 10 9 8 8 8 8 9 9 10 10 9 7 5 5 5 4 4 5 5 4 4 5 5 4 4 4 4 4
2 2 3 3 4 5 6 8 9 9 8 9 9 8 9 11 12 12 11 12 13 15 15 14 12 10 7 5 5 5 4 5 6 5 4 4 4 5 5 5 5 5 5
2 2 2 3 3 4 5 6 8 9 8 6 5 5 7 9 10 10 10 11 14 16 17 16 14 10 7 5 4 4 5 5 6 5 4 4 4 4 4 4 4 4 5
2 2 2 3 3 4 5 7 9 10 9 8 6 6 7 8 8 8 9 10 12 13 14 13 12 9 7 5 5 5 5 5 5 4 3 3 4 4 4 4 4 4 4
2 3 3 3 4 5 6 8 9 10 10 8 7 8 9 11 12 11 12 12 12 12 11 9 8 7 6 6 5 5 4 4 4 4 3 3 4 4 4 4 4 4 4
4 4 4 4 5 6 8 10 9 9 9 7 8 10 13 15 16 15 14 14 13 12 9 7 6 6 6 6 6 5 5 4 4 4 4 4 4 4 3 3 3 4 4
4 5 5 6 6 7 10 11 9 8 7 7 8 12 15 18 18 17 16 15 12 10 8 7 6 6 6 5 5 5 5 5 5 5 5 5 4 3 2 2 3 3 3
4 5 6 7 8 8 9 10 9 8 7 7 8 13 16 19 19 18 16 13 10 8 8 7 6 6 6 5 4 5 6 6 6 6 6 5 4 3 2 2 2 2 2
4 5 6 8 9 9 8 9 9 9 8 7 9 13 17 19 18 16 13 11 9 9 8 7 6 6 5 4 3 4 5 6 6 7 7 6 5 4 4 2 2 1 1
5 6 7 9 10 9 8 8 9 9 8 8 10 13 15 16 15 12 10 9 9 10 9 7 6 6 5 4 3 3 4 5 5 6 6 7 7 6 5 4 3 2 2
5 6 7 8 11 10 9 9 9 9 8 8 9 11 12 12 11 10 9 9 10 10 9 7 6 6 5 4 3 2 3 4 5 5 5 6 7 7 6 5 5 4 3
7 6 7 8 11 12 11 10 10 8 7 8 9 9 11 11 11 9 8 9 10 9 8 7 7 7 6 4 2 2 3 4 5 5 5 5 5 5 5 5 6 6 5
7 7 7 9 11 13 12 10 9 8 7 8 9 9 11 12 10 8 8 9 10 9 8 7 7 6 5 3 1 1 2 4 4 4 4 4 3 2 2 4 5 6 5
8 8 8 8 10 11 12 11 10 9 8 8 9 10 11 11 10 8 8 10 10 9 9 8 7 6 5 4 2 1 1 2 3 3 3 3 2 1 1 2 3 4 4
10 9 8 8 8 9 10 11 12 10 9 9 10 11 12 12 11 9 9 10 11 11 11 10 9 7 6 5 3 1 1 1 2 2 2 2 1 0 0 1 1 2 3
11 11 10 8 7 8 8 9 10 10 9 9 10 12 13 13 13 12 11 12 13 13 12 11 9 7 6 5 4 3 2 1 1 2 2 1 1 1 2 2 2 3 4
8 9 9 7 6 6 7 7 8 8 9 9 10 11 12 13 13 13 13 13 13 13 11 10 8 6 5 5 5 4 3 2 2 3 3 3 3 4 5 5 5 5 5
6 6 6 6 5 5 6 7 7 8 9 10 10 10 10 11 11 13 13 13 12 11 9 8 7 5 5 6 5 4 3 3 3 3 4 4 5 6 7 8 7 7 7

GEFSMW_con_maxscp_318.txt.gz
SCP
5 4 3 2 2 2 2 2 2 2 2 2 2 2 1 1 1 1 1 1 1 1 1 1 1 1 1 1 1 2 3 3 3 2 2 3 4 4 3 2 1 1 1
5 4 3 2 2 2 2 2 3 3 3 2 2 2 2 2 1 1 1 1 1 1 1 1 1 1 1 1 1 2 3 3 4 3 3 3 4 5 3 2 1 1 1
5 4 3 2 2 2 2 3 3 4 4 4 3 3 2 2 2 2 1 1 1 1 2 2 2 1 1 1 1 2 3 4 5 4 4 4 4 5 4 3 2 1 1
5 5 4 4 4 3 2 3 3 4 5 5 4 3 3 3 2 2 2 1 1 1 2 2 2 2 2 1 2 2 3 4 5 4 4 4 4 4 4 4 2 1 1
5 5 6 6 5 4 3 3 3 4 4 4 4 4 3 2 2 2 2 2 1 1 2 2 2 2 2 2 2 3 4 4 4 3 3 3 3 3 4 4 3 2 1
4 6 7 6 5 4 3 3 3 3 3 3 3 3 2 2 2 2 2 2 2 2 2 2 2 2 3 3 3 4 4 3 3 2 2 2 2 3 3 3 2 2 2
5 6 7 6 4 3 3 3 4 4 4 3 3 2 2 2 2 2 2 2 3 2 2 2 2 3 3 4 4 4 4 3 3 2 2 2 2 2 3 2 2 2 1
5 6 6 5 3 3 3 3 4 5 5 5 3 2 2 2 2 2 3 3 3 3 3 4 5 5 6 5 5 4 4 4 3 3 2 2 2 2 2 2 2 1 1
5 5 5 4 3 2 2 3 5 6 6 6 4 3 2 2 3 3 3 3 3 3 4 5 6 8 8 7 6 5 5 5 4 3 2 1 1 1 1 2 2 2 1
4 4 4 4 3 3 3 3 5 6 6 6 5 4 3 3 4 3 3 3 3 3 4 4 5 7 7 7 6 6 5 5 4 2 2 1 1 1 1 2 2 2 2
5 4 4 4 4 3 3 3 4 4 4 5 5 5 5 5 5 5 4 4 4 4 3 3 3 3 4 4 5 5 5 4 3 2 1 1 1 1 2 2 2 2 2
6 5 4 4 4 4 3 3 4 3 3 4 5 6 7 7 7 7 6 5 5 4 3 2 2 2 2 3 3 4 4 4 4 3 2 2 1 2 2 2 2 1 1
6 5 4 4 5 4 4 4 4 4 3 4 5 7 8 9 9 10 8 7 6 5 3 2 2 2 2 3 3 3 4 4 4 4 4 3 2 2 2 2 2 1 1
7 6 5 5 5 5 5 5 5 4 4 4 6 8 9 10 11 11 10 9 8 5 4 3 3 2 2 3 3 3 3 4 4 4 4 4 3 2 2 2 2 1 1
6 6 5 5 5 5 6 6 7 6 5 5 6 8 9 10 12 13 12 10 8 6 6 6 5 4 3 3 4 4 4 3 3 3 3 3 3 2 2 2 2 1 2
4 4 4 4 4 4 5 7 9 9 7 6 7 7 7 9 12 14 13 9 7 6 7 8 7 6 4 4 4 4 4 4 3 3 3 2 2 2 2 2 1 1 1
4 3 3 3 3 4 4 6 10 11 10 7 6 6 7 9 12 13 10 7 6 6 7 7 7 6 5 4 3 3 4 4 3 3 2 2 2 2 1 1 1 1 1
5 5 5 4 4 4 5 6 9 11 11 9 7 6 7 9 11 10 7 6 5 6 6 7 7 6 6 4 3 2 2 3 3 3 2 2 2 1 1 0 0 1 1
7 7 6 5 5 4 4 5 7 9 10 9 8 7 7 8 8 6 5 4 4 5 6 6 6 6 5 3 2 1 1 1 2 2 1 2 2 1 1 0 0 0 0
7 7 6 6 6 5 4 5 6 7 8 9 8 7 7 6 6 5 4 4 4 4 4 5 5 4 3 2 1 1 1 1 1 1 1 1 1 1 0 0 0 0 0
7 7 7 6 6 6 5 5 6 7 7 8 7 7 6 6 6 5 5 4 4 4 4 4 3 3 3 2 1 1 1 1 1 1 1 1 1 0 0 0 0 1 0
8 8 8 7 6 6 5 5 6 7 7 7 7 7 7 7 7 6 6 6 6 5 5 4 4 4 5 4 2 1 0 0 1 1 1 1 1 0 0 0 0 0 0
9 9 9 7 6 6 6 6 7 7 7 6 6 7 7 8 8 8 8 8 8 8 7 7 7 8 8 7 4 1 0 0 1 1 1 1 0 0 0 0 0 0 0
9 8 8 7 6 6 6 7 7 7 6 5 5 6 6 7 8 9 9 10 10 10 10 11 11 12 11 10 6 2 1 0 0 1 1 0 0 0 0 0 0 0 0
8 7 7 6 5 5 5 5 5 5 5 5 5 5 5 5 7 8 9 9 9 10 11 12 14 14 13 11 7 4 2 1 1 0 0 0 0 0 0 0 0 0 0
7 6 5 5 5 4 4 4 4 3 4 5 5 5 4 4 5 6 7 7 7 8 9 11 14 14 12 10 6 4 3 2 1 0 0 1 1 1 0 0 0 0 0

GEFSMW_con_maxscp_324.txt.gz
SCP
1 1 1 1 1 1 1 1 1 1 1 1 1 1 1 1 1 1 1 1 1 1 1 1 0 0 0 0 0 1 1 1 1 1 1 2 2 1 1 1 1 1 1
1 1 1 1 1 1 1 1 1 1 1 1 1 1 1 1 1 1 1 1 1 1 1 1 1 1 1 1 1 1 1 1 2 2 2 2 2 1 1 1 1 1 1
1 1 1 1 1 1 2 2 2 2 2 2 2 2 2 2 1 1 1 1 1 1 1 1 1 1 1 1 1 1 2 2 2 2 3 3 3 2 1 1 1 1 1
2 2 1 1 1 1 2 2 3 3 2 2 3 2 2 2 1 1 1 1 1 1 1 1 1 1 1 1 2 2 2 2 2 3 3 3 3 2 1 1 1 1 1
2 2 2 2 2 2 2 2 3 3 3 3 3 3 2 1 1 1 1 0 1 1 1 1 1 1 1 2 2 2 2 3 3 3 3 3 3 2 2 1 1 1 1
2 2 2 2 2 2 2 2 2 2 2 3 3 2 2 1 1 1 1 1 1 1 1 1 1 1 2 2 2 3 3 3 3 3 3 3 3 2 2 1 1 1 1
2 2 2 2 2 2 2 2 2 2 2 2 2 2 1 1 1 1 1 1 1 1 1 1 2 2 2 3 3 3 3 3 3 3 2 2 2 2 2 1 1 1 1
2 2 2 2 3 2 2 2 2 1 1 2 2 1 1 1 1 2 2 1 1 1 1 1 2 3 3 3 4 4 3 3 3 3 2 2 2 2 2 2 1 1 1
2 1 1 2 3 3 2 2 2 2 2 2 2 2 2 1 2 2 2 2 2 1 1 1 1 2 2 3 4 4 3 3 3 3 2 2 2 3 2 2 2 1 1
2 1 1 1 2 3 3 2 2 2 2 2 2 2 2 2 2 2 2 2 2 2 2 1 1 1 1 2 2 2 3 3 3 3 2 2 2 3 3 2 2 1 1
2 2 1 1 2 2 3 2 2 2 2 2 2 3 3 3 3 3 3 3 3 3 2 2 1 1 1 1 1 1 2 2 2 2 2 2 2 2 2 2 2 1 1
2 2 2 1 1 2 2 2 2 2 2 2 2 3 3 3 3 3 4 4 3 3 3 2 1 1 1 1 1 1 2 2 2 2 2 2 2 1 2 2 2 2 2
2 2 2 2 1 2 2 2 2 2 2 2 2 2 2 3 3 4 5 5 4 4 3 2 2 2 2 2 2 2 2 2 2 2 2 2 1 1 2 2 2 2 2
3 4 3 2 1 2 2 2 2 1 2 2 2 2 2 2 3 5 6 6 5 4 3 2 2 2 2 2 2 3 3 3 3 2 2 2 2 2 2 2 1 1 1
4 4 4 3 3 3 2 2 2 2 2 2 2 2 2 2 3 4 5 6 5 4 3 3 3 3 3 3 3 3 3 3 2 2 2 2 2 2 2 2 1 1 1
3 3 4 4 4 4 4 4 3 2 2 2 2 3 3 2 3 4 5 6 5 3 3 3 3 3 3 3 3 3 3 2 2 2 2 2 2 2 1 1 1 1 1
2 3 3 3 3 4 5 4 3 2 2 3 3 4 4 3 3 4 5 5 4 3 3 3 4 4 3 3 2 2 2 2 2 2 2 2 2 2 2 1 1 1 1
3 2 2 2 2 3 4 4 3 3 3 3 3 4 4 3 4 5 5 4 3 3 3 4 4 4 3 2 1 1 2 2 2 2 3 3 4 3 2 2 1 1 1
3 2 2 2 2 3 3 4 4 3 3 3 3 3 3 3 4 5 4 3 3 3 4 4 4 3 2 2 1 1 2 3 3 2 2 3 4 4 2 2 1 1 1
2 2 3 3 3 3 3 4 3 3 2 2 2 2 2 3 3 3 3 3 3 3 4 3 3 3 2 1 1 1 3 3 3 2 2 2 2 2 1 1 1 1 1
2 3 4 4 4 4 4 3 3 3 3 3 3 3 3 3 3 2 2 3 3 4 3 3 3 2 2 2 1 1 2 4 3 2 2 1 1 1 0 0 1 1 0
3 3 4 5 5 5 4 3 3 3 3 3 3 4 4 4 4 3 3 3 4 4 4 4 4 3 3 3 2 1 1 3 3 3 2 2 1 0 0 0 0 0 0
4 4 4 4 4 4 3 3 3 3 3 3 3 4 5 6 6 6 5 5 5 5 5 5 5 5 5 5 4 3 2 2 2 3 3 2 1 0 0 0 0 0 0
4 4 4 4 4 4 3 3 3 4 4 4 3 4 4 5 6 7 7 7 8 7 7 7 7 7 7 7 7 7 6 4 4 4 4 3 1 0 0 0 0 0 0
6 5 5 5 4 4 4 3 4 4 4 4 3 3 3 3 4 5 6 7 8 8 7 7 8 8 8 8 8 8 8 7 6 5 5 4 2 1 1 0 0 0 0
7 6 6 5 4 4 4 4 3 3 3 3 4 3 3 3 3 3 4 5 6 6 6 6 7 8 8 7 6 5 6 6 6 5 4 4 4 2 1 1 1 0 0

GEFSMW_con_maxscp_330.txt.gz
SCP
1 1 1 1 1 1 1 1 1 1 1 1 1 1 1 1 1 1 1 1 1 1 1 1 1 1 1 1 1 2 2 3 3 3 2 1 1 1 1 1 1 1 1
1 1 1 2 2 2 2 2 1 1 1 2 2 2 1 1 1 1 1 1 1 1 1 1 1 1 1 1 2 2 3 3 3 2 2 1 1 1 1 1 1 1 1
1 2 2 2 2 2 2 2 2 2 2 2 2 2 1 1 1 1 1 1 1 1 1 1 1 1 1 1 2 2 2 3 3 2 2 1 1 1 1 1 1 1 1
2 2 2 2 2 3 3 3 3 3 3 3 3 2 2 1 1 1 1 1 1 1 1 1 1 1 1 1 1 2 2 2 3 2 2 2 2 2 2 1 1 1 1
2 2 3 4 3 3 3 3 3 3 4 4 3 3 2 1 1 1 1 1 1 1 1 1 1 1 1 1 1 2 2 2 3 3 2 2 3 2 2 2 2 1 1
1 2 3 4 5 5 4 3 3 3 3 3 3 3 2 2 1 1 1 1 1 1 1 1 2 2 2 2 2 2 2 2 3 3 3 2 3 3 2 2 2 2 1
1 2 2 3 4 6 6 5 5 4 3 3 3 3 2 2 1 1 1 1 1 1 1 2 2 2 2 2 3 3 3 3 3 3 3 2 3 3 3 3 3 3 2
1 1 2 2 3 4 5 6 6 5 4 3 3 3 3 2 2 2 1 1 1 1 1 2 2 2 2 3 3 3 3 3 3 3 3 3 3 4 4 4 4 4 3
1 1 1 2 2 2 3 3 4 3 3 3 4 4 4 4 4 3 3 3 2 2 2 3 3 3 3 3 2 2 3 3 3 3 3 4 4 4 5 5 5 4 3
1 1 1 1 1 2 2 2 2 2 3 3 4 5 5 6 5 5 5 4 4 3 3 3 4 4 4 3 2 2 2 2 3 3 4 4 5 5 5 6 5 4 3
2 1 1 1 1 1 2 3 2 2 3 3 4 5 6 6 5 5 5 5 4 4 4 4 5 5 5 4 3 2 2 2 3 3 4 4 5 5 6 6 6 5 4
2 2 2 2 2 1 2 2 2 3 3 3 4 5 5 5 5 5 5 5 4 4 4 4 5 6 6 5 4 3 2 2 3 3 4 4 5 5 6 7 8 7 6
3 3 3 3 2 2 2 2 3 3 3 4 4 4 5 5 5 6 6 5 4 4 4 4 5 6 6 5 4 3 3 3 3 4 4 4 5 5 6 8 9 9 7
4 5 5 5 4 3 3 3 3 3 4 4 4 4 5 6 6 7 8 6 4 3 3 3 4 5 5 5 4 4 4 4 4 4 4 4 4 5 6 7 8 8 6
7 8 8 8 7 6 4 3 3 4 4 4 4 4 4 6 7 7 6 5 3 3 3 4 4 5 5 4 3 3 4 5 5 5 5 4 4 4 4 5 6 6 6
8 8 8 8 7 7 5 4 4 4 4 4 3 4 4 6 6 6 5 4 3 3 4 5 5 5 4 3 2 2 4 5 7 7 6 4 4 3 3 3 3 3 4
5 5 5 5 5 6 5 5 4 4 3 3 4 5 6 6 6 5 5 4 4 4 5 5 5 4 3 1 1 1 3 5 6 7 6 5 4 3 2 2 2 2 2
4 4 3 4 4 4 4 4 4 4 3 4 5 6 7 6 5 4 5 6 5 4 5 5 5 3 2 1 0 1 2 3 4 5 5 4 3 3 2 2 2 2 2
5 5 4 4 4 4 4 4 3 3 3 4 4 5 5 4 3 3 5 7 6 4 4 5 4 3 1 1 0 0 1 2 3 4 4 3 3 2 2 3 3 3 3
6 6 5 4 4 4 4 3 3 3 3 3 3 3 3 3 3 3 5 6 5 4 3 3 3 2 1 1 0 0 1 2 2 3 3 3 2 2 2 2 3 3 3
5 5 5 4 4 4 5 4 4 3 3 3 3 3 3 3 3 3 4 5 5 4 3 3 2 2 2 1 1 0 1 1 2 2 2 2 2 1 1 2 2 3 2
5 5 5 5 5 5 5 5 4 4 4 4 4 4 4 4 4 4 4 4 4 5 4 3 3 3 3 2 1 1 1 1 2 2 3 2 2 1 1 1 1 2 2
8 8 8 8 8 7 6 6 5 5 5 6 6 6 5 5 5 5 5 4 4 4 4 4 4 3 3 3 2 2 1 1 1 2 3 2 2 1 1 1 1 1 2
11 12 14 15 14 12 10 10 9 8 8 7 8 7 6 6 6 6 5 5 4 4 5 5 5 4 4 4 4 4 3 2 2 3 4 3 3 3 2 2 2 2 2
12 13 16 18 18 16 15 14 12 12 11 11 9 8 7 7 7 6 5 5 4 4 5 5 6 5 5 4 4 4 4 4 4 5 5 6 5 5 4 4 4 3 3
9 10 13 16 17 17 16 15 14 14 15 14 10 8 8 8 7 5 4 4 3 3 4 4 6 6 4 3 3 3 3 3 3 5 6 7 7 6 5 4 4 4 4